Showing default

SES 21, 53961

Orbit data source: Space-Track

SES 21, 53961 is a payload satellite owned by SES (LU) in GEO that was launched on Tue, 04 Oct 2022 UTC via an ATLAS V 531 launch vehicle from the Air Force Eastern Test Range (AFETR). Payload-class satellites include a variety of spacecraft equipped with specific instruments for various scientific and technological missions. These include communications satellites like Starlink; space stations such as the ISS; scientific satellites like the Hubble; Earth observation satellites from companies like Planet Labs, Umbra, and HawkEye 360; GPS; miniature CubeSats for education and research; and military/defense satellites.

Loading next visibility...
Identifier
53961, 2022-123B
Orbit
GEO
Country
Flag of LULU / SES
Related business
Manufacturer
Boeing/ES
Mission
Operational Commercial Communications
Bus & Motor
BSS-702SP, R-4D
Mass
1,768 kg wet, ~1,638 kg dry
Launch date (UTC)
2022-10-04 (3 years ago)
Launch vehicle
ATLAS V 531
Launch site
Air Force Eastern Test Range (AFETR)
Object type
Payload
Rocket body
Debris
Shape & HBR
Box + 2 Pan, 15.0 m
Radar Cross Section
48.465 m², Large (>1 m²)

Expand to show TLE details & history
Last TLE update: 10 hours ago

TLE from 10 hours ago
0 SES 21
1 53961U 22123B   26062.91323527  .00000056  00000-0  00000-0 0  9993
2 53961   0.0282  64.9709 0001123 288.3133   6.1492  1.00274058  6159
Epoch: 2026-03-03T21:55Z
TLE epoch observation values (Epoch: 2026-03-03T21:55:03.527Z)
Latitude
-0.03068°
Longitude
-130.98139°
Altitude
35,780.723 km
Speed
3.075 km/s
True Right ascension
23h 57m 52s
True Declination
0° 01' 50"
Sunlit
Object was in daylight at epoch
Visualization orbit readout
Latitude
Unknown
Longitude
Unknown
Altitude
Unknown
Speed
Unknown
Apparent Right ascension
Unknown
Apparent Declination
Unknown
Sunlit
N/A
Visualization observer readout
Local Sidereal Time
11:31:13
Azimuth
Unknown
Elevation
Unknown
Doppler factor
Unknown
Orbital elements
Apogee altitude
35,791.763 km
Perigee altitude
35,782.293 km
Semi-major axis
42,165.165 km
Eccentricity
0.00011
Inclination
0.0282°
RAAN
64.9709°
Arg. of periapsis
288.3133°
True anomaly
6.15058°
Mean anomaly
6.1492°
Eccentric anomaly
6.14989°
Mean motion
0.25068 °/min
Orbital period
1,436.12 mins
BSTAR
0
Loading maneuver chart data...
Computing Atmospheric mass density...
Loading historical data...
Loading historical data...
Loading historical data...
Loading historical data...
Loading historical data...
Loading historical data...
Loading historical data...
Other satellites on launch #123 in the year 2022 (2022-10-04 UTC)

Documentation

Showing up to 5 results
|